Location: Newark
(35.6799°N, 139.7636°E)
Time: 02:11:53
(UTC+00:00)

Tiros 1 - All Passes

Search period start: 14 December 2019 00:00
Search period end: 24 December 2019 00:00
Orbit: 630 x 664 km, 48.4° (Epoch: 13 December)

Date Brightness Start Highest point End Pass type
(mag) Time Alt. Az. Time Alt. Az. Time Alt. Az.
14 Dec - 01:05:11 10° NW 01:09:44 51° NNE 01:14:14 10° ESE daylight
14 Dec - 02:47:47 10° WNW 02:51:43 28° SW 02:55:37 10° SSE daylight
14 Dec - 16:59:38 10° SSE 17:02:08 14° SE 17:04:37 10° E night (unlit)
14 Dec - 18:39:02 10° SW 18:43:48 88° SE 18:48:33 10° NE visible
14 Dec - 20:22:30 10° WNW 20:26:28 25° NNW 20:30:23 10° NE visible
14 Dec - 22:06:51 10° NW 22:09:54 17° N 22:12:56 10° NE daylight
14 Dec - 23:49:17 10° NW 23:53:18 27° NNE 23:57:16 10° E daylight
15 Dec - 01:31:12 10° WNW 01:35:50 74° SW 01:40:26 10° SE daylight
15 Dec - 03:16:20 10° WSW 03:17:22 11° SW 03:18:24 10° SW daylight
15 Dec - 17:23:32 10° SSW 17:27:51 34° SE 17:32:08 10° ENE night (unlit)
15 Dec - 19:05:24 10° WSW 19:09:58 45° NNW 19:14:30 10° NE visible
15 Dec - 20:49:43 10° NW 20:53:04 19° N 20:56:24 10° NE visible
15 Dec - 22:33:15 10° NW 22:36:37 19° N 22:39:58 10° ENE daylight
16 Dec - 00:15:09 10° NW 00:19:41 48° NNE 00:24:09 10° ESE daylight
16 Dec - 01:57:39 10° WNW 02:01:43 30° SW 02:05:44 10° SSE daylight
16 Dec - 16:10:02 10° SSE 16:12:08 13° SE 16:14:15 10° ESE night (unlit)
16 Dec - 17:48:59 10° SW 17:53:45 82° SE 17:58:30 10° NE visible
16 Dec - 19:32:20 10° W 19:36:22 27° NNW 19:40:23 10° NE visible
16 Dec - 21:16:43 10° NW 21:19:48 17° N 21:22:51 10° NE visible
16 Dec - 22:59:15 10° NW 23:03:13 26° NNE 23:07:09 10° ENE daylight
17 Dec - 00:41:09 10° NW 00:45:49 81° SW 00:50:25 10° SE daylight
17 Dec - 02:25:38 10° WSW 02:27:23 12° SW 02:29:08 10° SSW daylight
17 Dec - 16:33:36 10° SSW 16:37:49 32° SE 16:42:02 10° ENE night (unlit)
17 Dec - 18:15:17 10° WSW 18:19:54 48° NNW 18:24:30 10° NE visible
17 Dec - 19:59:32 10° WNW 20:02:57 19° NNW 20:06:22 10° NE visible
17 Dec - 21:43:10 10° NW 21:46:31 19° N 21:49:50 10° NE daylight
17 Dec - 23:25:07 10° NW 23:29:37 45° NNE 23:34:04 10° ESE daylight
18 Dec - 01:07:32 10° WNW 01:11:43 33° SW 01:15:51 10° SSE daylight
18 Dec - 15:20:33 10° SSE 15:22:08 11° SE 15:23:43 10° ESE night (unlit)
18 Dec - 16:58:57 10° SW 17:03:43 75° SE 17:08:28 10° ENE night (unlit)
18 Dec - 18:42:09 10° W 18:46:16 28° NNW 18:50:22 10° NE visible
18 Dec - 20:26:34 10° NW 20:29:41 17° N 20:32:46 10° NE visible
18 Dec - 22:09:13 10° NW 22:13:08 25° NNE 22:17:00 10° ENE daylight
18 Dec - 23:51:05 10° NW 23:55:47 88° SSW 00:00:24 10° SE daylight
19 Dec - 01:35:10 10° W 01:37:24 13° SW 01:39:37 10° SSW daylight
19 Dec - 15:43:41 10° SSW 15:47:49 29° SE 15:51:54 10° ENE night (unlit)
19 Dec - 17:25:10 10° WSW 17:29:50 52° NNW 17:34:29 10° NE night (unlit)
19 Dec - 19:09:21 10° WNW 19:12:50 20° NNW 19:16:20 10° NE visible
19 Dec - 20:53:06 10° NW 20:56:25 18° N 20:59:41 10° NE visible
19 Dec - 22:35:05 10° NW 22:39:33 42° NNE 22:43:58 10° E daylight
20 Dec - 00:17:25 10° WNW 00:21:43 37° SW 00:25:56 10° SSE daylight
20 Dec - 14:31:29 10° SE 14:32:08 10° SE 14:32:47 10° ESE night (unlit)
20 Dec - 16:08:55 10° SW 16:13:40 69° SE 16:18:24 10° ENE night (unlit)
20 Dec - 17:51:59 10° W 17:56:11 29° NNW 18:00:21 10° NE visible
20 Dec - 19:36:26 10° NW 19:39:33 17° N 19:42:41 10° NE visible
20 Dec - 21:19:10 10° NW 21:23:03 24° NNE 21:26:52 10° ENE visible
20 Dec - 23:01:02 10° NW 23:05:44 86° NE 23:10:23 10° SE daylight
21 Dec - 00:44:48 10° W 00:47:25 15° SW 00:50:01 10° SSW daylight
21 Dec - 14:53:48 10° S 14:57:47 26° SE 15:01:46 10° ENE night (unlit)
21 Dec - 16:35:03 10° WSW 16:39:46 56° NNW 16:44:27 10° NE night (unlit)
21 Dec - 18:19:09 10° WNW 18:22:44 21° NNW 18:26:18 10° NE visible
21 Dec - 20:03:01 10° NW 20:06:18 18° N 20:09:33 10° NE visible
21 Dec - 21:45:03 10° NW 21:49:29 39° NNE 21:53:52 10° E daylight
21 Dec - 23:27:18 10° WNW 23:31:41 40° SW 23:36:01 10° SSE daylight
22 Dec - 15:18:53 10° SW 15:23:37 63° SE 15:28:21 10° ENE night (unlit)
22 Dec - 17:01:49 10° W 17:06:05 31° NNW 17:10:20 10° NE night (unlit)
22 Dec - 18:46:16 10° NW 18:49:27 17° N 18:52:36 10° NE visible
22 Dec - 20:29:07 10° NW 20:32:57 24° NNE 20:36:44 10° ENE visible
22 Dec - 22:10:59 10° NW 22:15:42 79° NE 22:20:21 10° ESE daylight
22 Dec - 23:54:29 10° W 23:57:25 17° SW 00:00:20 10° S daylight
23 Dec - 14:03:54 10° S 14:07:46 24° SE 14:11:36 10° ENE night (unlit)
23 Dec - 15:44:57 10° WSW 15:49:42 60° NNW 15:54:26 10° NE night (unlit)
23 Dec - 17:28:58 10° WNW 17:32:38 21° NNW 17:36:16 10° NE night (unlit)
23 Dec - 19:12:55 10° NW 19:16:11 18° N 19:19:25 10° NE visible
23 Dec - 20:55:01 10° NW 20:59:25 37° NNE 21:03:46 10° E visible
23 Dec - 22:37:12 10° WNW 22:41:41 44° SW 22:46:05 10° SSE daylight
